Time,TemperatureF,DewpointF,PressureIn,WindDirection,WindDirectionDegrees,WindSpeedMPH,WindSpeedGustMPH,Humidity,HourlyPrecipIn,Conditions,Clouds,dailyrainin,SoftwareType,DateUTC
2013-02-16 00:02:00,35.0,33.0,-100.00,ENE,75,2.0,6.0,93,-99.99,,,-99.99,,2013-02-16 05:02:00,
2013-02-16 00:12:00,34.0,32.0,-100.00,NE,50,2.0,6.0,94,-99.99,,,-99.99,,2013-02-16 05:12:00,
2013-02-16 00:22:00,34.0,32.0,-100.00,NE,50,2.0,6.0,94,-99.99,,,-99.99,,2013-02-16 05:22:00,
2013-02-16 00:32:00,34.0,32.0,-100.00,NNE,30,1.0,3.0,94,-99.99,,,-99.99,,2013-02-16 05:32:00,
2013-02-16 00:42:00,34.0,32.0,-100.00,NNE,15,2.0,3.0,94,-99.99,,,-99.99,,2013-02-16 05:42:00,
2013-02-16 00:52:00,34.0,32.0,-100.00,NNE,15,2.0,3.0,94,-99.99,,,-99.99,,2013-02-16 05:52:00,
2013-02-16 01:02:00,33.0,32.0,-100.00,NE,45,2.0,3.0,95,-99.99,,,-99.99,,2013-02-16 06:02:00,
2013-02-16 01:11:00,33.0,32.0,-100.00,ENE,60,2.0,4.0,96,-99.99,,,-99.99,,2013-02-16 06:11:00,
2013-02-16 01:22:00,33.0,32.0,-100.00,ENE,60,2.0,4.0,96,-99.99,,,-99.99,,2013-02-16 06:22:00,
2013-02-16 01:32:00,33.0,32.0,-100.00,NNE,30,2.0,4.0,96,-99.99,,,-99.99,,2013-02-16 06:32:00,
2013-02-16 01:42:00,33.0,32.0,-100.00,NE,35,2.0,3.0,96,-99.99,,,-99.99,,2013-02-16 06:42:00,
2013-02-16 01:52:00,33.0,32.0,-100.00,NE,35,2.0,3.0,96,-99.99,,,-99.99,,2013-02-16 06:52:00,
2013-02-16 02:02:00,33.0,32.0,-100.00,NNE,15,2.0,2.0,96,-99.99,,,-99.99,,2013-02-16 07:02:00,
2013-02-16 02:11:00,33.0,32.0,-100.00,North,355,2.0,3.0,96,-99.99,,,-99.99,,2013-02-16 07:11:00,
2013-02-16 02:22:00,33.0,32.0,-100.00,North,355,2.0,3.0,96,-99.99,,,-99.99,,2013-02-16 07:22:00,
2013-02-16 02:32:00,33.0,32.0,-100.00,NE,40,3.0,5.0,96,-99.99,,,-99.99,,2013-02-16 07:32:00,
2013-02-16 02:42:00,33.0,32.0,-100.00,NE,45,4.0,5.0,96,-99.99,,,-99.99,,2013-02-16 07:42:00,
2013-02-16 02:52:00,33.0,32.0,-100.00,NE,45,4.0,5.0,96,-99.99,,,-99.99,,2013-02-16 07:52:00,
2013-02-16 03:01:00,33.0,32.0,-100.00,NE,45,3.0,5.0,96,-99.99,,,-99.99,,2013-02-16 08:01:00,
2013-02-16 03:11:00,33.0,32.0,-100.00,North,5,0.0,3.0,96,-99.99,,,-99.99,,2013-02-16 08:11:00,
2013-02-16 03:22:00,33.0,32.0,-100.00,North,5,0.0,3.0,96,-99.99,,,-99.99,,2013-02-16 08:22:00,
2013-02-16 03:32:00,33.0,32.0,-100.00,NW,320,1.0,2.0,96,-99.99,,,-99.99,,2013-02-16 08:32:00,
2013-02-16 03:42:00,33.0,32.0,-100.00,NE,50,2.0,5.0,96,-99.99,,,-99.99,,2013-02-16 08:42:00,
2013-02-16 03:52:00,33.0,32.0,-100.00,NE,50,2.0,5.0,96,-99.99,,,-99.99,,2013-02-16 08:52:00,
2013-02-16 04:02:00,33.0,32.0,-100.00,NE,50,0.0,2.0,96,-99.99,,,-99.99,,2013-02-16 09:02:00,
2013-02-16 04:11:00,33.0,32.0,-100.00,SE,130,3.0,5.0,96,-99.99,,,-99.99,,2013-02-16 09:11:00,
2013-02-16 04:21:00,33.0,32.0,-100.00,SE,130,3.0,5.0,96,-99.99,,,-99.99,,2013-02-16 09:21:00,
2013-02-16 04:42:00,33.0,32.0,-100.00,North,0,2.0,3.0,96,-99.99,,,-99.99,,2013-02-16 09:42:00,
2013-02-16 04:51:00,33.0,32.0,-100.00,North,0,2.0,3.0,96,-99.99,,,-99.99,,2013-02-16 09:51:00,
2013-02-16 05:01:00,33.0,32.0,-100.00,NE,45,3.0,4.0,96,-99.99,,,-99.99,,2013-02-16 10:01:00,
2013-02-16 05:11:00,33.0,32.0,-100.00,NE,35,0.0,4.0,96,-99.99,,,-99.99,,2013-02-16 10:11:00,
2013-02-16 05:21:00,33.0,32.0,-100.00,NE,35,0.0,4.0,96,-99.99,,,-99.99,,2013-02-16 10:21:00,
2013-02-16 05:32:00,33.0,32.0,-100.00,SSE,165,3.0,6.0,96,-99.99,,,-99.99,,2013-02-16 10:32:00,
2013-02-16 05:42:00,33.0,32.0,-100.00,SSE,155,2.0,4.0,96,-99.99,,,-99.99,,2013-02-16 10:42:00,
2013-02-16 05:52:00,33.0,32.0,-100.00,SSE,155,2.0,4.0,96,-99.99,,,-99.99,,2013-02-16 10:52:00,
2013-02-16 06:02:00,33.0,32.0,-100.00,South,175,4.0,8.0,96,-99.99,,,-99.99,,2013-02-16 11:02:00,
2013-02-16 06:11:00,32.0,31.0,-100.00,SSE,160,5.0,11.0,96,-99.99,,,-99.99,,2013-02-16 11:11:00,
2013-02-16 06:22:00,32.0,31.0,-100.00,SSE,160,5.0,11.0,96,-99.99,,,-99.99,,2013-02-16 11:22:00,
2013-02-16 06:32:00,32.0,30.0,-100.00,South,180,4.0,15.0,92,-99.99,,,-99.99,,2013-02-16 11:32:00,
2013-02-16 06:42:00,32.0,28.0,-100.00,SSE,150,3.0,8.0,84,-99.99,,,-99.99,,2013-02-16 11:42:00,
2013-02-16 06:52:00,32.0,28.0,-100.00,SSE,150,3.0,8.0,84,-99.99,,,-99.99,,2013-02-16 11:52:00,
2013-02-16 07:02:00,33.0,27.0,-100.00,NW,325,1.0,4.0,81,-99.99,,,-99.99,,2013-02-16 12:02:00,
2013-02-16 07:12:00,32.0,26.0,-100.00,South,190,3.0,6.0,78,-99.99,,,-99.99,,2013-02-16 12:12:00,
2013-02-16 07:22:00,32.0,26.0,-100.00,South,190,3.0,6.0,78,-99.99,,,-99.99,,2013-02-16 12:22:00,
2013-02-16 07:32:00,32.0,26.0,-100.00,NNW,335,0.0,3.0,77,-99.99,,,-99.99,,2013-02-16 12:32:00,
2013-02-16 07:42:00,32.0,25.0,-100.00,South,175,6.0,10.0,75,-99.99,,,-99.99,,2013-02-16 12:42:00,
2013-02-16 07:52:00,32.0,25.0,-100.00,South,175,6.0,10.0,75,-99.99,,,-99.99,,2013-02-16 12:52:00,
2013-02-16 08:02:00,32.0,25.0,-100.00,SSW,195,7.0,10.0,73,-99.99,,,-99.99,,2013-02-16 13:02:00,
2013-02-16 08:12:00,32.0,25.0,-100.00,SSW,195,7.0,10.0,73,-99.99,,,-99.99,,2013-02-16 13:12:00,
2013-02-16 09:01:00,32.0,24.0,-100.00,SE,145,1.0,4.0,72,-99.99,,,-99.99,,2013-02-16 14:01:00,
2013-02-16 09:11:00,33.0,24.0,-100.00,SSW,205,3.0,6.0,71,-99.99,,,-99.99,,2013-02-16 14:11:00,
2013-02-16 09:21:00,33.0,24.0,-100.00,SSW,205,3.0,6.0,71,-99.99,,,-99.99,,2013-02-16 14:21:00,
2013-02-16 09:32:00,32.0,23.0,-100.00,South,185,5.0,8.0,69,-99.99,,,-99.99,,2013-02-16 14:32:00,
2013-02-16 09:42:00,32.0,23.0,-100.00,SSW,205,6.0,11.0,67,-99.99,,,-99.99,,2013-02-16 14:42:00,
2013-02-16 09:52:00,32.0,23.0,-100.00,SSW,205,6.0,11.0,67,-99.99,,,-99.99,,2013-02-16 14:52:00,
2013-02-16 10:02:00,32.0,22.0,-100.00,SSW,195,4.0,10.0,67,-99.99,,,-99.99,,2013-02-16 15:02:00,
2013-02-16 10:11:00,32.0,22.0,-100.00,SSW,200,5.0,10.0,66,-99.99,,,-99.99,,2013-02-16 15:11:00,
2013-02-16 10:22:00,32.0,22.0,-100.00,SSW,200,5.0,10.0,66,-99.99,,,-99.99,,2013-02-16 15:22:00,
2013-02-16 10:32:00,33.0,23.0,-100.00,SSW,210,3.0,11.0,66,-99.99,,,-99.99,,2013-02-16 15:32:00,
2013-02-16 10:42:00,33.0,22.0,-100.00,South,190,6.0,10.0,64,-99.99,,,-99.99,,2013-02-16 15:42:00,
2013-02-16 10:52:00,33.0,22.0,-100.00,South,190,6.0,10.0,64,-99.99,,,-99.99,,2013-02-16 15:52:00,
2013-02-16 11:02:00,33.0,22.0,-100.00,SSW,195,6.0,9.0,64,-99.99,,,-99.99,,2013-02-16 16:02:00,
2013-02-16 11:11:00,33.0,23.0,-100.00,South,190,6.0,9.0,64,-99.99,,,-99.99,,2013-02-16 16:11:00,
2013-02-16 11:22:00,33.0,23.0,-100.00,South,190,6.0,9.0,64,-99.99,,,-99.99,,2013-02-16 16:22:00,
2013-02-16 11:32:00,33.0,23.0,-100.00,SSW,210,5.0,11.0,64,-99.99,,,-99.99,,2013-02-16 16:32:00,
2013-02-16 11:42:00,34.0,23.0,-100.00,SSW,195,6.0,9.0,64,-99.99,,,-99.99,,2013-02-16 16:42:00,
2013-02-16 11:52:00,34.0,23.0,-100.00,SSW,195,6.0,9.0,64,-99.99,,,-99.99,,2013-02-16 16:52:00,
2013-02-16 12:01:00,35.0,24.0,-100.00,South,190,4.0,9.0,64,-99.99,,,-99.99,,2013-02-16 17:01:00,
2013-02-16 12:11:00,35.0,24.0,-100.00,SE,145,2.0,9.0,63,-99.99,,,-99.99,,2013-02-16 17:11:00,
2013-02-16 12:22:00,35.0,24.0,-100.00,SE,145,2.0,9.0,63,-99.99,,,-99.99,,2013-02-16 17:22:00,
2013-02-16 12:32:00,35.0,23.0,-100.00,SE,135,6.0,10.0,62,-99.99,,,-99.99,,2013-02-16 17:32:00,
2013-02-16 12:42:00,35.0,23.0,-100.00,South,180,6.0,11.0,61,-99.99,,,-99.99,,2013-02-16 17:42:00,
2013-02-16 12:52:00,35.0,23.0,-100.00,South,180,6.0,11.0,61,-99.99,,,-99.99,,2013-02-16 17:52:00,
2013-02-16 13:02:00,35.0,24.0,-100.00,SE,135,6.0,12.0,62,-99.99,,,-99.99,,2013-02-16 18:02:00,
2013-02-16 13:11:00,36.0,24.0,-100.00,ESE,105,3.0,12.0,62,-99.99,,,-99.99,,2013-02-16 18:11:00,
2013-02-16 13:22:00,36.0,24.0,-100.00,ESE,105,3.0,12.0,62,-99.99,,,-99.99,,2013-02-16 18:22:00,
2013-02-16 13:33:00,36.0,24.0,-100.00,SE,130,7.0,12.0,60,-99.99,,,-99.99,,2013-02-16 18:33:00,
2013-02-16 13:42:00,36.0,23.0,-100.00,SE,130,4.0,12.0,60,-99.99,,,-99.99,,2013-02-16 18:42:00,
2013-02-16 13:52:00,36.0,23.0,-100.00,SE,130,4.0,12.0,60,-99.99,,,-99.99,,2013-02-16 18:52:00,
2013-02-16 14:02:00,36.0,23.0,-100.00,SW,225,7.0,11.0,59,-99.99,,,-99.99,,2013-02-16 19:02:00,
2013-02-16 14:11:00,36.0,23.0,-100.00,South,185,5.0,11.0,58,-99.99,,,-99.99,,2013-02-16 19:11:00,
2013-02-16 14:22:00,36.0,23.0,-100.00,South,185,5.0,11.0,58,-99.99,,,-99.99,,2013-02-16 19:22:00,
2013-02-16 14:32:00,36.0,23.0,-100.00,SSE,165,7.0,10.0,57,-99.99,,,-99.99,,2013-02-16 19:32:00,
2013-02-16 14:42:00,36.0,22.0,-100.00,SSE,165,9.0,14.0,56,-99.99,,,-99.99,,2013-02-16 19:42:00,
2013-02-16 14:52:00,36.0,22.0,-100.00,SSE,165,9.0,14.0,56,-99.99,,,-99.99,,2013-02-16 19:52:00,
2013-02-16 15:01:00,36.0,21.0,-100.00,SSE,150,7.0,11.0,55,-99.99,,,-99.99,,2013-02-16 20:01:00,
2013-02-16 15:11:00,36.0,21.0,-100.00,South,175,5.0,10.0,54,-99.99,,,-99.99,,2013-02-16 20:11:00,
2013-02-16 15:22:00,36.0,21.0,-100.00,South,175,5.0,10.0,54,-99.99,,,-99.99,,2013-02-16 20:22:00,
2013-02-16 15:32:00,36.0,20.0,-100.00,SSE,155,6.0,11.0,52,-99.99,,,-99.99,,2013-02-16 20:32:00,
2013-02-16 15:42:00,35.0,19.0,-100.00,South,170,5.0,11.0,52,-99.99,,,-99.99,,2013-02-16 20:42:00,
2013-02-16 15:52:00,35.0,19.0,-100.00,South,170,5.0,11.0,52,-99.99,,,-99.99,,2013-02-16 20:52:00,
2013-02-16 16:02:00,35.0,19.0,-100.00,SE,135,5.0,11.0,51,-99.99,,,-99.99,,2013-02-16 21:02:00,
2013-02-16 16:11:00,36.0,19.0,-100.00,SE,145,3.0,7.0,51,-99.99,,,-99.99,,2013-02-16 21:11:00,
2013-02-16 16:21:00,36.0,19.0,-100.00,SE,145,3.0,7.0,51,-99.99,,,-99.99,,2013-02-16 21:21:00,
2013-02-16 16:32:00,35.0,18.0,-100.00,South,190,6.0,10.0,50,-99.99,,,-99.99,,2013-02-16 21:32:00,
2013-02-16 16:42:00,35.0,17.0,-100.00,South,175,6.0,13.0,49,-99.99,,,-99.99,,2013-02-16 21:42:00,
2013-02-16 16:52:00,35.0,17.0,-100.00,South,175,6.0,13.0,49,-99.99,,,-99.99,,2013-02-16 21:52:00,
2013-02-16 17:01:00,34.0,17.0,-100.00,South,180,6.0,12.0,48,-99.99,,,-99.99,,2013-02-16 22:01:00,
2013-02-16 17:11:00,34.0,17.0,-100.00,South,170,4.0,9.0,49,-99.99,,,-99.99,,2013-02-16 22:11:00,
2013-02-16 17:22:00,34.0,17.0,-100.00,South,170,4.0,9.0,49,-99.99,,,-99.99,,2013-02-16 22:22:00,
2013-02-16 17:32:00,34.0,16.0,-100.00,SSE,155,7.0,10.0,48,-99.99,,,-99.99,,2013-02-16 22:32:00,
2013-02-16 17:42:00,34.0,17.0,-100.00,South,175,5.0,9.0,49,-99.99,,,-99.99,,2013-02-16 22:42:00,
2013-02-16 17:52:00,34.0,17.0,-100.00,South,175,5.0,9.0,49,-99.99,,,-99.99,,2013-02-16 22:52:00,
2013-02-16 18:02:00,34.0,17.0,-100.00,South,175,5.0,7.0,49,-99.99,,,-99.99,,2013-02-16 23:02:00,
2013-02-16 18:11:00,33.0,16.0,-100.00,SSE,165,4.0,10.0,48,-99.99,,,-99.99,,2013-02-16 23:11:00,
2013-02-16 18:21:00,33.0,16.0,-100.00,SSE,165,4.0,10.0,48,-99.99,,,-99.99,,2013-02-16 23:21:00,
2013-02-16 18:32:00,33.0,16.0,-100.00,SSE,165,4.0,6.0,48,-99.99,,,-99.99,,2013-02-16 23:32:00,
2013-02-16 18:42:00,33.0,16.0,-100.00,SSE,160,3.0,7.0,49,-99.99,,,-99.99,,2013-02-16 23:42:00,
2013-02-16 18:52:00,33.0,16.0,-100.00,SSE,160,3.0,7.0,49,-99.99,,,-99.99,,2013-02-16 23:52:00,
2013-02-16 19:02:00,33.0,16.0,-100.00,ESE,115,3.0,9.0,49,-99.99,,,-99.99,,2013-02-17 00:02:00,
2013-02-16 19:12:00,33.0,16.0,-100.00,SE,140,2.0,11.0,49,-99.99,,,-99.99,,2013-02-17 00:12:00,
2013-02-16 19:22:00,33.0,16.0,-100.00,SE,140,2.0,11.0,49,-99.99,,,-99.99,,2013-02-17 00:22:00,
2013-02-16 19:32:00,33.0,16.0,-100.00,SE,145,3.0,6.0,49,-99.99,,,-99.99,,2013-02-17 00:32:00,
2013-02-16 19:42:00,32.0,15.0,-100.00,ESE,120,3.0,12.0,48,-99.99,,,-99.99,,2013-02-17 00:42:00,
2013-02-16 19:52:00,32.0,15.0,-100.00,ESE,120,3.0,12.0,48,-99.99,,,-99.99,,2013-02-17 00:52:00,
2013-02-16 20:01:00,32.0,15.0,-100.00,SE,130,5.0,12.0,49,-99.99,,,-99.99,,2013-02-17 01:01:00,
2013-02-16 20:11:00,32.0,15.0,-100.00,ESE,110,3.0,9.0,49,-99.99,,,-99.99,,2013-02-17 01:11:00,
2013-02-16 20:21:00,32.0,15.0,-100.00,ESE,110,3.0,9.0,49,-99.99,,,-99.99,,2013-02-17 01:21:00,
2013-02-16 20:32:00,32.0,14.0,-100.00,ESE,105,5.0,11.0,48,-99.99,,,-99.99,,2013-02-17 01:32:00,
2013-02-16 20:42:00,32.0,14.0,-100.00,ESE,105,5.0,11.0,48,-99.99,,,-99.99,,2013-02-17 01:42:00,
2013-02-16 21:11:00,31.0,14.0,-100.00,SSE,160,8.0,12.0,47,-99.99,,,-99.99,,2013-02-17 02:11:00,
2013-02-16 21:21:00,31.0,14.0,-100.00,SSE,160,8.0,12.0,47,-99.99,,,-99.99,,2013-02-17 02:21:00,
2013-02-16 21:32:00,31.0,14.0,-100.00,SSE,155,8.0,13.0,47,-99.99,,,-99.99,,2013-02-17 02:32:00,
2013-02-16 21:42:00,31.0,14.0,-100.00,SSE,150,8.0,15.0,47,-99.99,,,-99.99,,2013-02-17 02:42:00,
2013-02-16 21:52:00,31.0,14.0,-100.00,SSE,150,8.0,15.0,47,-99.99,,,-99.99,,2013-02-17 02:52:00,
2013-02-16 22:02:00,31.0,13.0,-100.00,South,175,12.0,25.0,46,-99.99,,,-99.99,,2013-02-17 03:02:00,
2013-02-16 22:11:00,31.0,13.0,-100.00,South,175,8.0,17.0,47,-99.99,,,-99.99,,2013-02-17 03:11:00,
2013-02-16 22:21:00,31.0,13.0,-100.00,South,175,8.0,17.0,47,-99.99,,,-99.99,,2013-02-17 03:21:00,
2013-02-16 22:32:00,30.0,12.0,-100.00,South,175,11.0,19.0,45,-99.99,,,-99.99,,2013-02-17 03:32:00,
2013-02-16 22:42:00,30.0,11.0,-100.00,South,170,9.0,18.0,45,-99.99,,,-99.99,,2013-02-17 03:42:00,
2013-02-16 22:51:00,30.0,11.0,-100.00,South,170,9.0,18.0,45,-99.99,,,-99.99,,2013-02-17 03:51:00,
2013-02-16 23:01:00,30.0,11.0,-100.00,SSE,155,9.0,22.0,44,-99.99,,,-99.99,,2013-02-17 04:01:00,
2013-02-16 23:11:00,30.0,10.0,-100.00,SSE,155,8.0,15.0,44,-99.99,,,-99.99,,2013-02-17 04:11:00,
2013-02-16 23:21:00,30.0,10.0,-100.00,SSE,155,8.0,15.0,44,-99.99,,,-99.99,,2013-02-17 04:21:00,
2013-02-16 23:32:00,29.0,10.0,-100.00,SSE,155,12.0,18.0,43,-99.99,,,-99.99,,2013-02-17 04:32:00,
2013-02-16 23:42:00,29.0,9.0,-100.00,SE,145,8.0,22.0,42,-99.99,,,-99.99,,2013-02-17 04:42:00,
2013-02-16 23:51:00,29.0,9.0,-100.00,SE,145,8.0,22.0,42,-99.99,,,-99.99,,2013-02-17 04:51:00,